Shingle Point, Yukon Territory

7:06 AM PDT on April 25, 2018 (GMT -0700)
Shingle Point

Weather History for CYUA - October, 2012

Change the Weather History Date:

Sunday, October 21, 2012

  Actual Average Record
Temperature  
Mean Temperature 16 °F -  
Max Temperature 17 °F 10 °F 41 °F (2013)
Min Temperature 14 °F -3 °F 0 °F (2010)
Degree Days  
Heating Degree Days 50    
Moisture  
Dew Point -    
Average Humidity    
Maximum Humidity    
Minimum Humidity    
Precipitation  
Precipitation 0.00 in 0.02 in - ()
Sea Level Pressure  
Sea Level Pressure 30.51 in    
Wind  
Wind Speed 25 mph ()    
Max Wind Speed 38 mph    
Max Gust Speed 38 mph    
Visibility 5.3 miles    
Events Snow    
Averages and records for this station are not official NWS values.
T = Trace of Precipitation, MM = Missing Value Source: Averaged Metar Reports

Daily Weather History Graph

Daily Weather History Graph

Search for Another Location

Airport or City:

Astronomy

Oct. 21, 2012 Rise Set
Actual Time 9:44 AM PDT 6:01 PM PDT
Civil Twilight 8:41 AM PDT 7:03 PM PDT
Nautical Twilight 7:33 AM PDT 8:11 PM PDT
Astronomical Twilight 6:25 AM PDT 9:18 PM PDT
Moon 5:19 PM PDT (10/21) 11:05 PM PDT (10/21)
Length of Visible Light 10h 22m
Length of Day
8h 17m
Waxing Crescent, 46% of the Moon is Illuminated
Oct 21
Waxing Crescent
Oct 21
First Quarter
Oct 29
Full
Nov 6
Last Quarter
Nov 13
New

Hourly Weather History & Observations

Time (PDT) Temp. Windchill Dew Point Humidity Pressure Visibility Wind Dir Wind Speed Gust Speed Precip Events Conditions
12:00 AM 14.0 °F -3.4 °F - N/A% 30.57 in 9.0 mi SSW 19.6 mph - N/A   Unknown
1:00 AM 14.0 °F -1.4 °F - N/A% 30.57 in 9.0 mi SSW 15.0 mph - N/A   Unknown
1:31 AM 15.8 °F -1.9 °F - N/A% 30.54 in 9.0 mi SSW 21.9 mph - N/A Snow Light Snow
1:47 AM 14.0 °F -3.9 °F - N/A% 30.55 in 9.0 mi SSW 20.7 mph - N/A   Unknown
2:00 AM 15 °F - - % 30.56 in 9 mi SSW 19.6 mph - -  
2:00 AM 15.8 °F -1.5 °F - N/A% 30.56 in 9.0 mi SSW 20.7 mph - N/A   Unknown
3:00 AM 15.8 °F -2.7 °F - N/A% 30.56 in 9.0 mi SSW 24.2 mph - N/A   Unknown
3:07 AM 17.6 °F -0.6 °F - N/A% 30.54 in 9.0 mi SSW 25.3 mph - N/A Snow Light Snow
4:00 AM 17.6 °F -0.6 °F - N/A% 30.56 in 7.0 mi SSW 25.3 mph 31.1 mph N/A Snow Light Snow
5:00 AM 17 °F - - % 30.57 in 9 mi SSW 25.3 mph - -  
6:00 AM 15.8 °F -4.1 °F - N/A% 30.56 in 3.5 mi SSW 28.8 mph - N/A Snow Light Snow
7:00 AM 15.8 °F -3.7 °F - N/A% 30.56 in 5.0 mi SSW 27.6 mph - N/A Snow Light Snow
7:33 AM 15.8 °F -3.4 °F - N/A% 30.54 in 8.0 mi SSW 26.5 mph - N/A   Unknown
7:37 AM 15.8 °F -3.7 °F - N/A% 30.54 in 8.0 mi SSW 27.6 mph - N/A Snow Light Snow
7:39 AM 15.8 °F -3.7 °F - N/A% 30.54 in 7.0 mi SSW 27.6 mph - N/A   Unknown
7:56 AM 15.8 °F -3.7 °F - N/A% 30.54 in 7.0 mi SSW 27.6 mph - N/A Snow Light Snow
8:00 AM 15 °F - - % 30.56 in 7 mi SSW 27.6 mph - - Snow Light Snow
8:00 AM 15.8 °F -3.7 °F - N/A% 30.56 in 7.0 mi SSW 27.6 mph - N/A Snow Light Snow
8:32 AM 15.8 °F -3.4 °F - N/A% 30.55 in 9.0 mi SSW 26.5 mph - N/A   Unknown
9:00 AM 15.8 °F -2.7 °F - N/A% 30.57 in 9.0 mi SSW 24.2 mph - N/A   Unknown
10:00 AM 15.8 °F -3.4 °F - N/A% 30.56 in 8.0 mi SSW 26.5 mph - N/A   Unknown
11:00 AM 15 °F - - % 30.57 in 5 mi SSW 28.8 mph - -  
11:00 AM 15.8 °F -3.4 °F - N/A% 30.57 in 5.0 mi SSW 26.5 mph 32.2 mph N/A   Unknown
12:00 PM 15.8 °F -3.4 °F - N/A% 30.56 in 9.0 mi SSW 26.5 mph - N/A   Unknown
1:00 PM 17.6 °F -0.6 °F - N/A% 30.55 in 9.0 mi SSW 25.3 mph - N/A   Unknown
1:41 PM 17.6 °F -2.2 °F - N/A% 30.52 in 2.8 mi SSW 31.1 mph - N/A   Unknown
2:00 PM 17 °F - - % 30.54 in 2 mi SSW 33.4 mph - -  
2:00 PM 17.6 °F -2.8 °F - N/A% 30.54 in 2.0 mi SSW 33.4 mph - N/A   Unknown
2:20 PM 17.6 °F -2.8 °F - N/A% 30.51 in 3.5 mi SSW 33.4 mph - N/A   Unknown
2:25 PM 17.6 °F -2.5 °F - N/A% 30.51 in 2.8 mi SSW 32.2 mph - N/A   Unknown
2:54 PM 15.8 °F -4.1 °F - N/A% 30.51 in 3.0 mi SSW 28.8 mph - N/A Snow Light Snow
3:00 PM 15.8 °F -4.1 °F - N/A% 30.53 in 4.0 mi SSW 28.8 mph - N/A Snow Light Snow
3:07 PM 15.8 °F -5.0 °F - N/A% 30.51 in 3.0 mi SSW 32.2 mph - N/A Snow Light Snow
3:21 PM 15.8 °F -5.5 °F - N/A% 30.50 in 1.4 mi SSW 34.5 mph - N/A Snow Light Snow
3:30 PM 15.8 °F -6.1 °F - N/A% 30.49 in 1.0 mi SSW 36.8 mph - N/A Snow Light Snow
3:38 PM 15.8 °F -6.3 °F - N/A% 30.49 in 0.6 mi SSW 38.0 mph - N/A Snow Light Snow
3:56 PM 15.8 °F -6.1 °F - N/A% 30.49 in 0.8 mi SSW 36.8 mph - N/A Snow Light Snow
4:00 PM 15.8 °F -6.3 °F - N/A% 30.51 in 0.8 mi SSW 38.0 mph - N/A Snow Light Snow
4:24 PM 17.6 °F -3.1 °F - N/A% 30.49 in 1.1 mi SSW 34.5 mph - N/A Snow Light Snow
4:40 PM 15.8 °F -4.7 °F - N/A% 30.49 in 2.2 mi SSW 31.1 mph 38.0 mph N/A Snow Light Snow
5:00 PM 17 °F - - % 30.51 in 2 mi SSW 33.4 mph - -  
5:00 PM 17.6 °F -2.8 °F - N/A% 30.51 in 2.2 mi SSW 33.4 mph - N/A Snow Light Snow
5:17 PM 15.8 °F -5.0 °F - N/A% 30.49 in 3.5 mi SSW 32.2 mph - N/A Snow Light Snow
5:20 PM 15.8 °F -5.2 °F - N/A% 30.49 in 3.0 mi SSW 33.4 mph - N/A Snow Light Snow
5:53 PM 15.8 °F -4.4 °F - N/A% 30.48 in 2.8 mi SSW 29.9 mph 36.8 mph N/A Snow Light Snow
5:59 PM 15.8 °F -4.4 °F - N/A% 30.48 in 3.5 mi SSW 29.9 mph - N/A Snow Light Snow
6:00 PM 15.8 °F -4.7 °F - N/A% 30.50 in 3.5 mi SSW 31.1 mph - N/A Snow Light Snow
6:10 PM 15.8 °F -5.0 °F - N/A% 30.48 in 3.5 mi SSW 32.2 mph - N/A Snow Light Snow
6:23 PM 15.8 °F -4.7 °F - N/A% 30.48 in 3.5 mi SSW 31.1 mph - N/A   Unknown
7:00 PM 15.8 °F -4.7 °F - N/A% 30.50 in 5.0 mi SSW 31.1 mph - N/A   Unknown
7:23 PM 15.8 °F -4.7 °F - N/A% 30.47 in 3.5 mi SSW 31.1 mph - N/A Snow Light Snow
7:29 PM 15.8 °F -4.4 °F - N/A% 30.47 in 4.0 mi South 29.9 mph - N/A   Unknown
7:45 PM 15.8 °F -5.0 °F - N/A% 30.47 in 4.0 mi SSW 32.2 mph - N/A Snow Light Snow
7:49 PM 15.8 °F -4.7 °F - N/A% 30.47 in 4.0 mi SSW 31.1 mph - N/A   Unknown
7:56 PM 15.8 °F -4.4 °F - N/A% 30.47 in 4.0 mi South 29.9 mph - N/A Snow Light Snow
8:00 PM 15 °F - - % 30.49 in 4 mi SSW 29.9 mph - -  
8:00 PM 15.8 °F -4.7 °F - N/A% 30.49 in 4.0 mi SSW 31.1 mph - N/A   Unknown
8:09 PM 15.8 °F -4.7 °F - N/A% 30.46 in 3.5 mi SSW 31.1 mph - N/A Snow Light Snow
8:11 PM 15.8 °F -4.7 °F - N/A% 30.46 in 3.5 mi SSW 31.1 mph - N/A   Unknown
8:14 PM 15.8 °F -4.7 °F - N/A% 30.46 in 3.5 mi SSW 31.1 mph - N/A Snow Light Snow
8:24 PM 15.8 °F -4.7 °F - N/A% 30.46 in 4.0 mi SSW 31.1 mph - N/A   Unknown
9:00 PM 14.0 °F -6.5 °F - N/A% 30.48 in 6.0 mi SSW 28.8 mph 34.5 mph N/A   Unknown
9:15 PM 15.8 °F -4.1 °F - N/A% 30.46 in 5.0 mi South 28.8 mph - N/A Snow Light Snow
9:45 PM 15.8 °F -4.1 °F - N/A% 30.46 in 9.0 mi South 28.8 mph - N/A   Unknown
10:00 PM 15.8 °F -3.7 °F - N/A% 30.47 in 7.0 mi SSW 27.6 mph - N/A   Unknown
10:27 PM 15.8 °F -4.1 °F - N/A% 30.45 in 8.0 mi SSW 28.8 mph - N/A Snow Light Snow
10:37 PM 15.8 °F -4.4 °F - N/A% 30.45 in 8.0 mi South 29.9 mph - N/A   Unknown
10:55 PM 15.8 °F -3.7 °F - N/A% 30.44 in 9.0 mi SSW 27.6 mph - N/A Snow Light Snow
11:00 PM 15 °F - - % 30.46 in 9 mi SSW 27.6 mph - -  
11:00 PM 15.8 °F -4.1 °F - N/A% 30.46 in 9.0 mi SSW 28.8 mph - N/A Snow Light Snow